Mayfld Grav Cnty AP, Mayfield, KY

7:47 AM CST on December 15, 2019 (GMT -0600)
Mayfld Grav Cnty AP, Mayfield

Weather History for KM25 - August, 2019

Change the Weather History Date:

Sunday, August 4, 2019

  Actual Average (WUND) Record (WUND)
Temperature  
Mean Temperature 78 °F -  
Max Temperature 87 °F - - (-1)
Min Temperature 69 °F - - (-1)
Cooling Degree Days 13    
Growing Degree Days 28 (Base 50)    
Moisture  
Dew Point 71 °F    
Average Humidity 88    
Maximum Humidity 100    
Minimum Humidity 58    
Precipitation  
Precipitation 0.09 in - - ()
Sea Level Pressure  
Sea Level Pressure 30.01 in    
Wind  
Wind Speed 1 mph (ENE)    
Max Wind Speed 13 mph    
Max Gust Speed -    
Visibility 9 miles    
Events      
Averages and records for this station are not official NWS values.
T = Trace of Precipitation, MM = Missing Value Source: NWS Daily Summary

Daily Weather History Graph

Daily Weather History Graph

Search for Another Location

Airport or City:

Astronomy

Aug. 04, 2019 Rise Set
Actual Time 6:02 AM CDT 7:58 PM CDT
Civil Twilight 5:33 AM CDT 8:26 PM CDT
Nautical Twilight 4:59 AM CDT 9:00 PM CDT
Astronomical Twilight 4:22 AM CDT 9:37 PM CDT
Moon 10:02 AM CDT (8/4) 10:43 PM CDT (8/4)
Length of Visible Light 14h 52m
Length of Day
13h 55m
Waxing Crescent, 18% of the Moon is Illuminated
Aug 4
Waxing Crescent
Aug 7
First Quarter
Aug 15
Full
Aug 23
Last Quarter
Aug 30
New

Hourly Weather History & Observations

Time (CDT) Temp. Heat Index Dew Point Humidity Pressure Visibility Wind Dir Wind Speed Gust Speed Precip Events Conditions
12:15 AM 69.8 °F - 69.8 °F 100% 30.01 in 10.0 mi Calm Calm - N/A   Clear
12:35 AM 69.8 °F - 69.8 °F 100% 30.01 in 10.0 mi Calm Calm - N/A   Clear
12:55 AM 69.8 °F - 69.8 °F 100% 30.01 in 10.0 mi Calm Calm - N/A   Clear
1:15 AM 69.8 °F - 69.8 °F 100% 30.01 in 10.0 mi Calm Calm - N/A   Clear
1:35 AM 69.8 °F - 69.8 °F 100% 30.01 in 7.0 mi Calm Calm - N/A   Clear
1:55 AM 69.8 °F - 69.8 °F 100% 30.01 in 7.0 mi Calm Calm - N/A   Clear
2:15 AM 69.8 °F - 69.8 °F 100% 30.01 in 7.0 mi Calm Calm - N/A   Clear
2:35 AM 69.8 °F - 69.8 °F 100% 30.01 in 7.0 mi Calm Calm - N/A   Clear
2:55 AM 69.8 °F - 69.8 °F 100% 30.01 in 7.0 mi Calm Calm - N/A   Clear
3:15 AM 69.8 °F - 69.8 °F 100% 30.00 in 7.0 mi Calm Calm - N/A   Clear
3:35 AM 69.8 °F - 69.8 °F 100% 30.00 in 7.0 mi North 3.5 mph - N/A   Clear
3:55 AM 69.8 °F - 69.8 °F 100% 30.00 in 7.0 mi Calm Calm - N/A   Clear
4:15 AM 69.8 °F - 69.8 °F 100% 29.99 in 5.0 mi ENE 3.5 mph - N/A   Mostly Cloudy
4:35 AM 69.8 °F - 69.8 °F 100% 30.00 in 4.0 mi Calm Calm - N/A   Overcast
4:55 AM 69.8 °F - 69.8 °F 100% 30.00 in 2.5 mi Calm Calm - N/A   Overcast
5:15 AM 69.8 °F - 69.8 °F 100% 30.00 in 2.0 mi Calm Calm - N/A   Mostly Cloudy
5:35 AM 69.8 °F - 69.8 °F 100% 30.01 in 5.0 mi Calm Calm - N/A   Scattered Clouds
5:55 AM 69.8 °F - 69.8 °F 100% 30.01 in 5.0 mi Calm Calm - N/A   Clear
6:15 AM 69.8 °F - 69.8 °F 100% 30.01 in 5.0 mi Calm Calm - N/A   Clear
6:35 AM 69.8 °F - 69.8 °F 100% 30.02 in 7.0 mi Calm Calm - N/A   Clear
6:55 AM 69.8 °F - 69.8 °F 100% 30.02 in 7.0 mi Calm Calm - N/A   Clear
7:15 AM 71.6 °F - 71.6 °F 100% 30.02 in 7.0 mi Calm Calm - N/A   Clear
7:35 AM 71.6 °F - 71.6 °F 100% 30.02 in 7.0 mi Calm Calm - N/A   Clear
7:55 AM 71.6 °F - 71.6 °F 100% 30.03 in 10.0 mi Calm Calm - N/A   Clear
8:15 AM 73.4 °F - 71.6 °F 94% 30.02 in 10.0 mi Calm Calm - N/A   Clear
8:35 AM 75.2 °F - 71.6 °F 89% 30.02 in 10.0 mi Calm Calm - N/A   Clear
8:55 AM 75.2 °F - 73.4 °F 94% 30.03 in 10.0 mi Calm Calm - N/A   Clear
9:15 AM 77.0 °F - 73.4 °F 89% 30.03 in 10.0 mi NE 3.5 mph - N/A   Clear
9:35 AM 78.8 °F - 71.6 °F 78% 30.03 in 10.0 mi NE 3.5 mph - N/A   Clear
9:55 AM 78.8 °F - 69.8 °F 74% 30.04 in 10.0 mi ENE 3.5 mph - N/A   Mostly Cloudy
10:15 AM 80.6 °F 84.6 °F 71.6 °F 74% 30.04 in 10.0 mi NE 3.5 mph - N/A   Scattered Clouds
10:35 AM 82.4 °F 87.2 °F 71.6 °F 70% 30.04 in 10.0 mi Calm Calm - N/A   Clear
10:55 AM 82.4 °F 87.2 °F 71.6 °F 70% 30.03 in 10.0 mi Calm Calm - N/A   Clear
11:15 AM 82.4 °F 86.3 °F 69.8 °F 66% 30.03 in 10.0 mi ENE 3.5 mph - N/A   Clear
11:55 AM 86.0 °F 91.8 °F 71.6 °F 62% 30.03 in 10.0 mi Calm Calm - N/A   Scattered Clouds
12:15 PM 84.2 °F 89.6 °F 71.6 °F 66% 30.02 in 10.0 mi NNW 3.5 mph - N/A   Scattered Clouds
12:35 PM 86.0 °F 91.8 °F 71.6 °F 62% 30.02 in 10.0 mi Calm Calm - N/A   Scattered Clouds
12:55 PM 84.2 °F 89.6 °F 71.6 °F 66% 30.01 in 10.0 mi NNW 3.5 mph - N/A   Mostly Cloudy
1:15 PM 87.8 °F 93.8 °F 71.6 °F 58% 30.00 in 10.0 mi Calm Calm - N/A   Scattered Clouds
1:35 PM 78.8 °F - 69.8 °F 74% 30.01 in 10.0 mi NE 11.5 mph - N/A   Mostly Cloudy
1:55 PM 75.2 °F - 68.0 °F 78% 30.01 in 10.0 mi ENE 12.7 mph - N/A   Overcast
2:15 PM 73.4 °F - 69.8 °F 88% 30.01 in 5.0 mi SE 5.8 mph - 0.01 in   Overcast
2:35 PM 75.2 °F - 69.8 °F 83% 30.02 in 10.0 mi NNE 8.1 mph - 0.01 in   Overcast
2:55 PM 75.2 °F - 69.8 °F 83% 30.00 in 10.0 mi North 4.6 mph - 0.01 in   Mostly Cloudy
3:15 PM 80.6 °F 83.9 °F 69.8 °F 70% 29.98 in 10.0 mi North 5.8 mph - N/A   Mostly Cloudy
3:35 PM 80.6 °F 83.9 °F 69.8 °F 70% 29.98 in 10.0 mi Calm Calm - N/A   Scattered Clouds
3:55 PM 80.6 °F 84.6 °F 71.6 °F 74% 29.98 in 10.0 mi Calm Calm - N/A   Clear
4:15 PM 82.4 °F 87.2 °F 71.6 °F 70% 29.98 in 10.0 mi ENE 4.6 mph - N/A   Clear
4:35 PM 82.4 °F 86.3 °F 69.8 °F 66% 29.98 in 10.0 mi ENE 3.5 mph - N/A   Clear
5:15 PM 84.2 °F 89.6 °F 71.6 °F 66% 29.98 in 10.0 mi ENE 4.6 mph - N/A   Clear
5:35 PM 84.2 °F 89.6 °F 71.6 °F 66% 29.98 in 10.0 mi ENE 4.6 mph - N/A   Scattered Clouds
5:55 PM 84.2 °F 89.6 °F 71.6 °F 66% 29.98 in 10.0 mi ENE 3.5 mph - N/A   Clear
6:15 PM 84.2 °F 89.6 °F 71.6 °F 66% 29.97 in 10.0 mi Calm Calm - N/A   Clear
6:35 PM 80.6 °F 84.6 °F 71.6 °F 74% 29.98 in 10.0 mi East 5.8 mph - N/A   Clear
6:55 PM 80.6 °F 84.6 °F 71.6 °F 74% 30.00 in 10.0 mi NNE 9.2 mph - N/A   Scattered Clouds
7:15 PM 73.4 °F - 71.6 °F 94% 29.98 in 2.5 mi Calm Calm - 0.07 in   Mostly Cloudy
7:35 PM 75.2 °F - 73.4 °F 94% 29.98 in 10.0 mi Calm Calm - 0.07 in   Scattered Clouds
7:55 PM 75.2 °F - 73.4 °F 94% 29.99 in 10.0 mi ESE 3.5 mph - 0.08 in   Clear
8:15 PM 73.4 °F - 73.4 °F 100% 29.99 in 10.0 mi Calm Calm - N/A   Clear
8:35 PM 73.4 °F - 73.4 °F 100% 29.99 in 10.0 mi SE 3.5 mph - N/A   Clear
8:55 PM 73.4 °F - 71.6 °F 94% 29.99 in 10.0 mi ESE 3.5 mph - N/A   Clear
9:15 PM 73.4 °F - 71.6 °F 94% 30.00 in 10.0 mi ESE 3.5 mph - N/A   Clear
9:35 PM 73.4 °F - 71.6 °F 94% 30.00 in 10.0 mi East 3.5 mph - N/A   Clear
9:55 PM 71.6 °F - 71.6 °F 100% 30.01 in 10.0 mi Calm Calm - N/A   Clear
10:15 PM 71.6 °F - 71.6 °F 100% 30.01 in 10.0 mi Calm Calm - N/A   Clear
10:35 PM 71.6 °F - 71.6 °F 100% 30.02 in 10.0 mi Calm Calm - N/A   Clear
10:55 PM 69.8 °F - 69.8 °F 100% 30.02 in 10.0 mi Calm Calm - N/A   Clear
11:15 PM 69.8 °F - 69.8 °F 100% 30.02 in 10.0 mi Calm Calm - N/A   Clear
11:35 PM 69.8 °F - 69.8 °F 100% 30.02 in 10.0 mi Calm Calm - N/A   Clear
11:55 PM 69.8 °F - 69.8 °F 100% 30.02 in 10.0 mi Calm Calm - N/A   Clear